Location: Unspecified
(0.0000°N, 0.0000°E)
Time: 15:58:25
(UTC+00:00)

N. Korean satellite - Visible Passes

Search period start: 19 October 2020 00:00
Search period end: 29 October 2020 00:00
Orbit: 453 x 504 km, 97.2° (Epoch: 18 October)

Date Brightness Start Highest point End Pass type
(mag) Time Alt. Az. Time Alt. Az. Time Alt. Az.
19 Oct 9.8 04:28:24 10° ENE 04:30:27 15° ESE 04:32:31 10° SE visible
21 Oct 6.5 05:08:04 10° NNE 05:11:28 84° ESE 05:14:54 10° S visible
22 Oct 8.8 04:42:30 10° NE 04:45:26 27° E 04:48:23 10° SSE visible
22 Oct 10.7 18:04:15 10° SW 18:05:38 12° WSW 18:07:01 10° W visible
23 Oct 10.4 04:19:14 10° E 04:19:25 10° ESE 04:19:36 10° ESE visible
25 Oct 7.4 04:57:04 10° NNE 05:00:23 51° E 05:03:45 10° S visible
26 Oct 9.6 04:31:57 10° ENE 04:34:22 18° ESE 04:36:48 10° SSE visible
28 Oct 6.4 05:11:54 10° N 05:15:19 80° W 05:18:48 10° SSW visible
